Location: Peterborough
(44.3091°N, 78.3197°W)
Time: 15:45:28
(UTC-05:00)

Tiangong - Visible Passes

Search period start: 07 February 2023 00:00
Search period end: 17 February 2023 00:00
Orbit: 382 x 386 km, 41.5° (Epoch: 07 February)

Date Brightness Start Highest point End Pass type
(mag) Time Alt. Az. Time Alt. Az. Time Alt. Az.
13 Feb 0.9 06:22:18 10° S 06:23:45 13° SSE 06:25:12 10° ESE visible
15 Feb 0.3 05:58:22 10° SSW 06:00:42 19° SSE 06:03:04 10° ESE visible
16 Feb 0.7 05:01:10 13° SSE 05:01:10 13° SSE 05:02:35 10° ESE visible
16 Feb -0.8 06:34:27 10° SW 06:37:25 36° SSE 06:40:22 10° E visible
